[[{"header":{"parameterUnit":"m.s-1","parameterCategory":1,"la1":30.2991,"la2":30.254,"lo1":-89.0895,"lo2":-89.0444,"dy":0.0017,"dx":0.0017,"nx":28,"ny":28,"refTime":"2026-01-31T03:00:00:Z","depth":0,"parameterNumber":2,"parameterNumberName":"U-component_of_WINDS"},"data":[0,0,0,0,0,0,0,0,0,0,0,0,0,0,0,0,0,0,0,0,0,0,0,0,0,0,0,0,0,0,0,0,0,0,0,0,0,0,0,0,0,0,0,0,0,0,0,0,0,0,0,0,0,0,0,0,0,0,3.4857,3.4858,0,3.4912,3.4913,3.4913,3.488,3.4878,3.4876,3.4875,3.493,3.4932,3.4935,0,0,0,0,0,0,0,0,0,0,0,0,0,3.4722,3.4724,3.4857,3.4858,3.4858,3.4912,3.4913,3.4914,3.488,3.4878,3.4876,3.4874,3.4929,3.4932,3.4936,0,0,0,0,0,0,0,0,0,0,0,0,0,3.4779,3.4725,3.4857,3.4848,3.4848,3.4912,3.4913,3.4914,3.488,3.4878,3.4876,3.4873,3.4927,3.4932,3.4936,3.5011,0,0,3.495,3.4951,0,0,0,0,0,0,0,0,3.4776,3.4784,3.4849,3.4849,3.4849,3.4887,3.4885,3.4946,3.4881,3.4868,3.4875,3.4872,3.4917,3.4922,3.4938,3.5014,3.5016,3.495,3.4953,3.4954,3.4956,0,0,0,0,0,0,0,3.4772,3.4781,3.4879,3.485,3.485,3.4841,3.4847,3.4897,3.4905,3.4869,3.4867,3.4874,3.4917,3.4934,3.4939,3.5017,3.495,3.4954,3.4956,3.4958,3.5159,3.5162,0,0,0,0,0,0,3.4769,3.4778,3.4877,3.488,3.4806,3.4846,3.4852,3.4877,3.4905,3.4907,3.4876,3.4872,3.4927,3.4934,3.4941,3.5031,3.4954,3.4959,3.4961,3.5157,3.516,3.5163,0,0,0,0,0,0,3.4766,3.4778,3.4875,3.4829,3.484,3.485,3.4879,3.4879,3.4896,3.491,3.4911,3.4892,3.4926,3.4934,3.4994,3.5033,3.4961,3.4965,3.5154,3.5158,3.5161,3.5213,0,0,0,0,0,0,3.4762,3.4777,3.4806,3.483,3.4843,3.4928,3.4881,3.4882,3.4904,3.49,3.4925,3.4927,3.4924,3.4988,3.4999,3.5037,3.4968,3.515,3.5155,3.516,3.5208,3.5218,3.5227,0,0,0,0,0,3.4757,3.4817,3.4807,3.4819,3.4879,3.493,3.4938,3.4934,3.4907,3.4936,3.4945,3.4926,3.5027,3.4995,3.5006,3.5047,3.5148,3.5154,3.516,3.5204,3.5216,3.5227,0,0,0,0,0,0,3.4796,3.482,3.4809,3.4879,3.4903,3.4924,3.4961,3.4948,3.4979,3.4974,3.4968,3.4974,3.5037,3.5048,3.5011,3.5122,3.5083,3.5092,3.5112,3.5125,3.5134,3.513,3.4972,0,0,0,0,0,3.4813,3.4853,3.4871,3.4931,3.4944,3.495,3.4972,3.4968,3.4992,3.5002,3.5015,3.504,3.5077,3.5101,3.5136,3.521,3.5215,3.5244,3.5253,3.5261,3.5269,3.5309,3.5323,3.5183,3.5183,3.5183,0,0,3.4847,3.4866,3.4891,3.4939,3.4957,3.4999,3.4959,3.5004,3.5035,3.5009,3.5067,3.5078,3.5104,3.5172,3.5202,3.5183,3.5309,3.5269,3.5275,3.5278,3.5317,3.533,3.5342,3.5187,3.5186,3.5186,0,0,3.4932,3.4949,3.5001,3.5021,3.505,3.5054,3.5067,3.5091,3.5098,3.5156,3.5138,3.5174,3.5238,3.5259,3.5277,3.5372,3.5355,3.5383,3.5433,3.5473,3.5484,3.5494,3.5528,3.5541,3.5391,3.5391,3.5391,0,3.4971,3.5033,3.5029,3.5077,3.5099,3.5079,3.5132,3.5151,3.5189,3.5205,3.5183,3.5264,3.5281,3.5353,3.5377,3.5392,3.5407,3.538,3.5483,3.5493,3.5502,3.5535,3.5547,3.5394,3.5394,3.5394,3.5393,0,3.508,3.5123,3.5162,3.5201,3.5227,3.5277,3.5282,3.5309,3.5303,3.531,3.537,3.539,3.5429,3.5446,3.544,3.5518,3.5506,3.5484,3.5444,3.5519,3.5549,3.5562,3.5399,3.5398,3.5397,3.5396,0,0,3.5188,3.5226,3.5241,3.5259,3.529,3.5323,3.5373,3.5412,3.5436,3.5464,3.5505,3.5561,3.5542,3.5563,3.5559,3.5595,3.5669,3.5569,3.5569,3.5587,3.5758,3.5774,3.5788,3.5659,3.5662,3.5664,3.5756,0,3.5274,3.5361,3.5361,3.5441,3.5481,3.5464,3.5507,3.5531,3.554,3.5575,3.5584,3.5624,3.5596,3.5609,3.5643,3.5653,3.5704,3.5646,3.5698,3.5699,3.5691,3.5804,3.5821,3.5907,3.5768,3.577,3.5771,0,3.5386,3.5419,3.5504,3.5531,3.5548,3.5586,3.5623,3.5658,3.5685,3.5689,3.5714,3.5705,3.5756,3.5716,3.5786,3.5747,3.5768,3.5777,3.578,3.5784,3.5739,3.5811,3.5934,3.5947,3.579,3.5788,3.5787,0,3.5457,3.5522,3.5582,3.5598,3.5631,3.5659,3.5673,3.5698,3.5723,3.5755,3.5771,3.5809,3.5829,3.5859,3.5861,3.5832,3.5932,3.5892,3.5936,3.5936,3.5957,3.5956,3.6085,3.5972,3.5972,3.5971,3.5971,0,3.5553,3.5605,3.5614,3.5651,3.5709,3.5709,3.5767,3.5779,3.5802,3.5841,3.5828,3.5865,3.5866,3.5903,3.5905,3.5964,3.5973,3.5977,3.5977,3.5978,3.5978,3.5991,3.5985,3.5975,3.5974,3.5973,3.5973,0,3.5641,3.5649,3.5713,3.574,3.5748,3.579,3.5813,3.5848,3.5856,3.5905,3.5917,3.5929,3.5973,3.5979,3.6029,3.6031,3.6101,3.6094,3.6092,3.6091,3.6135,3.6131,3.6277,3.6297,3.6171,3.6172,3.6173,0,3.5702,3.5742,3.5774,3.5799,3.5816,3.5857,3.5883,3.5884,3.5911,3.5947,3.5978,3.6021,3.6055,3.6126,3.6139,3.6178,3.6173,3.6221,3.6178,3.6179,3.6174,3.6171,3.6175,3.6229,3.6231,3.6232,3.6233,0,3.5808,3.5811,3.5848,3.5888,3.5919,3.595,3.5979,3.6001,3.6006,3.6037,3.6082,3.6109,3.6162,3.6205,3.6244,3.6259,3.6247,3.6247,3.6259,3.626,3.6257,3.626,3.6114,3.6243,3.6242,3.6241,3.6241,3.624,3.5885,3.592,3.5949,3.5991,3.6014,3.6042,3.6077,3.609,3.6128,3.6172,3.617,3.622,3.6248,3.63,3.6318,3.6357,3.6341,3.6359,3.6364,3.6368,3.6373,3.6252,3.6365,3.6364,3.6364,3.6364,3.6364,0,3.5991,3.6009,3.6048,3.609,3.6124,3.6111,3.6143,3.6172,3.6217,3.6244,3.6279,3.6332,3.6374,3.6392,3.6433,3.6461,3.6457,3.6472,3.647,3.6473,3.6384,3.637,3.6475,3.6475,3.6475,3.6475,3.6475,3.6475,3.605,3.611,3.6116,3.6188,3.6205,3.6255,3.6274,3.63,3.6322,3.6382,3.6418,3.6429,3.6453,3.6497,3.6535,3.6539,3.6555,3.6573,3.6575,3.6491,3.648,3.6469,3.6455,3.6576,3.6576,3.666,3.6661,3.6662]},{"header":{"parameterUnit":"m.s-1","parameterCategory":1,"la1":30.2991,"la2":30.254,"lo1":-89.0895,"lo2":-89.0444,"dy":0.0017,"dx":0.0017,"nx":28,"ny":28,"refTime":"2026-01-31T03:00:00:Z","depth":0,"parameterNumber":3,"parameterNumberName":"V-component_of_WINDS"},"data":[0,0,0,0,0,0,0,0,0,0,0,0,0,0,0,0,0,0,0,0,0,0,0,0,0,0,0,0,0,0,0,0,0,0,0,0,0,0,0,0,0,0,0,0,0,0,0,0,0,0,0,0,0,0,0,0,0,0,-8.1734,-8.1737,0,-8.1967,-8.197,-8.1973,-8.1923,-8.1918,-8.1914,-8.191,-8.2144,-8.2154,-8.2164,0,0,0,0,0,0,0,0,0,0,0,0,0,-8.1241,-8.125,-8.1734,-8.1737,-8.174,-8.1967,-8.197,-8.1973,-8.1923,-8.1918,-8.1913,-8.1908,-8.214,-8.2152,-8.2165,0,0,0,0,0,0,0,0,0,0,0,0,0,-8.1463,-8.1253,-8.1733,-8.1742,-8.1745,-8.1966,-8.197,-8.1974,-8.1924,-8.1918,-8.1911,-8.1905,-8.2136,-8.2151,-8.2166,-8.2391,0,0,-8.2213,-8.222,0,0,0,0,0,0,0,0,-8.145,-8.1481,-8.1738,-8.1742,-8.1746,-8.1909,-8.1882,-8.2114,-8.1926,-8.1856,-8.191,-8.1902,-8.2071,-8.2091,-8.2149,-8.2402,-8.2412,-8.2215,-8.2224,-8.2231,-8.2235,0,0,0,0,0,0,0,-8.1435,-8.147,-8.1826,-8.1742,-8.1747,-8.1733,-8.1758,-8.1926,-8.1997,-8.1862,-8.1859,-8.1887,-8.2071,-8.2134,-8.2154,-8.2416,-8.2214,-8.2228,-8.2238,-8.2244,-8.2866,-8.2873,0,0,0,0,0,0,-8.1417,-8.1458,-8.1819,-8.1833,-8.1579,-8.1748,-8.1775,-8.1863,-8.1995,-8.2009,-8.1893,-8.1884,-8.2111,-8.2136,-8.2162,-8.2435,-8.2231,-8.2245,-8.2254,-8.2859,-8.2868,-8.2876,0,0,0,0,0,0,-8.1406,-8.1449,-8.1809,-8.1645,-8.169,-8.1763,-8.1863,-8.1871,-8.1934,-8.2018,-8.203,-8.1944,-8.2107,-8.214,-8.2335,-8.2442,-8.2252,-8.2266,-8.285,-8.2862,-8.2872,-8.2982,0,0,0,0,0,0,-8.1392,-8.1446,-8.1533,-8.1647,-8.1699,-8.198,-8.187,-8.1881,-8.1961,-8.1953,-8.207,-8.2083,-8.2104,-8.2313,-8.2351,-8.246,-8.2278,-8.2841,-8.2856,-8.2868,-8.2969,-8.2995,-8.3018,0,0,0,0,0,-8.1375,-8.1553,-8.1538,-8.1581,-8.181,-8.1987,-8.2016,-8.2039,-8.197,-8.2058,-8.2112,-8.2079,-8.2425,-8.2333,-8.2375,-8.2491,-8.2835,-8.2851,-8.2867,-8.2958,-8.299,-8.3017,0,0,0,0,0,0,-8.1448,-8.1568,-8.1552,-8.1773,-8.1871,-8.1978,-8.2089,-8.2072,-8.2189,-8.2175,-8.2197,-8.2224,-8.2423,-8.2476,-8.2372,-8.2716,-8.262,-8.2645,-8.2674,-8.2705,-8.2729,-8.2712,-8.2291,0,0,0,0,0,-8.149,-8.1625,-8.1722,-8.1908,-8.1958,-8.2016,-8.2093,-8.2103,-8.2203,-8.2243,-8.2312,-8.2409,-8.254,-8.2625,-8.275,-8.2977,-8.3001,-8.3077,-8.3101,-8.3121,-8.3143,-8.3267,-8.3302,-8.293,-8.293,-8.2929,0,0,-8.1577,-8.166,-8.1744,-8.1925,-8.2001,-8.214,-8.205,-8.22,-8.2303,-8.2266,-8.2455,-8.2509,-8.2619,-8.2831,-8.2928,-8.2881,-8.3251,-8.3142,-8.3157,-8.3168,-8.3288,-8.3323,-8.3354,-8.2941,-8.2939,-8.2937,0,0,-8.1808,-8.1884,-8.2048,-8.2127,-8.2244,-8.2282,-8.2321,-8.2432,-8.2467,-8.2658,-8.2633,-8.2754,-8.2979,-8.3059,-8.3129,-8.3392,-8.3366,-8.3431,-8.3558,-8.368,-8.3709,-8.3735,-8.3829,-8.3863,-8.3453,-8.3453,-8.3453,0,-8.1902,-8.2111,-8.2134,-8.2288,-8.2368,-8.2343,-8.2508,-8.2583,-8.2734,-8.279,-8.2736,-8.3019,-8.3091,-8.3322,-8.3386,-8.3443,-8.3489,-8.3418,-8.3703,-8.373,-8.3754,-8.3844,-8.388,-8.346,-8.346,-8.3459,-8.3458,0,-8.2221,-8.2367,-8.2484,-8.2634,-8.2727,-8.2886,-8.2931,-8.3023,-8.3025,-8.3067,-8.3262,-8.3348,-8.349,-8.3546,-8.3547,-8.3778,-8.3745,-8.3698,-8.3601,-8.3797,-8.3882,-8.3916,-8.3471,-8.3468,-8.3466,-8.3464,0,0,-8.2504,-8.2665,-8.2708,-8.2776,-8.2904,-8.3016,-8.3173,-8.3315,-8.3393,-8.3498,-8.363,-8.3822,-8.3779,-8.3858,-8.3869,-8.3976,-8.4179,-8.3915,-8.3918,-8.3961,-8.4438,-8.4474,-8.4514,-8.4163,-8.4169,-8.4175,-8.4429,0,-8.2746,-8.3026,-8.3051,-8.3302,-8.3437,-8.3415,-8.3552,-8.3645,-8.3689,-8.3809,-8.3857,-8.3993,-8.3925,-8.3974,-8.4078,-8.4132,-8.4275,-8.4114,-8.4285,-8.4291,-8.4259,-8.4558,-8.4596,-8.4832,-8.4463,-8.4468,-8.4472,0,-8.3067,-8.3185,-8.3449,-8.356,-8.3617,-8.374,-8.3872,-8.3987,-8.4092,-8.4117,-8.4207,-8.4204,-8.4364,-8.4262,-8.4484,-8.4374,-8.4445,-8.4483,-8.4492,-8.4509,-8.4394,-8.4583,-8.4908,-8.4944,-8.4525,-8.4521,-8.4517,0,-8.3248,-8.3472,-8.3659,-8.3718,-8.3851,-8.3938,-8.3998,-8.4096,-8.418,-8.4295,-8.4349,-8.448,-8.4552,-8.4654,-8.4686,-8.4608,-8.4907,-8.4807,-8.4931,-8.4931,-8.4995,-8.4991,-8.5336,-8.5041,-8.504,-8.5039,-8.5038,0,-8.3517,-8.3679,-8.3742,-8.3858,-8.4039,-8.4067,-8.4245,-8.4299,-8.4388,-8.4512,-8.4501,-8.4618,-8.4653,-8.4776,-8.4802,-8.4982,-8.5014,-8.5038,-8.5043,-8.504,-8.5037,-8.5087,-8.5072,-8.5049,-8.5047,-8.5045,-8.5043,0,-8.3749,-8.3798,-8.4001,-8.4112,-8.4143,-8.4272,-8.4366,-8.4477,-8.4519,-8.4678,-8.4716,-8.4783,-8.4927,-8.4969,-8.5142,-8.5159,-8.5371,-8.5361,-8.5337,-8.5337,-8.5459,-8.5447,-8.5849,-8.5904,-8.5572,-8.5575,-8.5578,0,-8.3918,-8.4043,-8.4168,-8.4252,-8.4315,-8.445,-8.4536,-8.4567,-8.4657,-8.4787,-8.4882,-8.5025,-8.5141,-8.5373,-8.5435,-8.5568,-8.5561,-8.5693,-8.558,-8.5573,-8.5564,-8.5556,-8.5569,-8.5714,-8.5717,-8.572,-8.5722,0,-8.4212,-8.4231,-8.4356,-8.4491,-8.4594,-8.4701,-8.4804,-8.4872,-8.4918,-8.502,-8.5169,-8.5259,-8.5437,-8.5579,-8.5713,-8.5773,-8.5756,-8.5757,-8.5793,-8.5791,-8.5772,-8.5785,-8.5395,-8.5748,-8.5745,-8.5743,-8.5742,-8.5741,-8.4419,-8.4529,-8.4635,-8.4775,-8.4856,-8.4953,-8.5063,-8.512,-8.5245,-8.5394,-8.5404,-8.5566,-8.5667,-8.5847,-8.5913,-8.6039,-8.6,-8.6052,-8.6065,-8.6078,-8.6088,-8.5752,-8.6063,-8.6063,-8.6062,-8.6061,-8.6061,0,-8.4713,-8.478,-8.4909,-8.5055,-8.5165,-8.5141,-8.5254,-8.5347,-8.549,-8.5587,-8.5703,-8.5874,-8.6012,-8.6086,-8.6224,-8.631,-8.6306,-8.6345,-8.6339,-8.6353,-8.6115,-8.607,-8.6346,-8.6346,-8.6346,-8.6346,-8.6346,-8.6346,-8.4879,-8.5066,-8.5097,-8.5323,-8.5389,-8.5548,-8.5615,-8.5704,-8.5782,-8.5974,-8.609,-8.6138,-8.6226,-8.637,-8.6496,-8.6514,-8.6565,-8.661,-8.6623,-8.6399,-8.637,-8.6342,-8.63,-8.662,-8.6621,-8.6851,-8.6854,-8.6855]}]]